Date,TemperatureHighF,TemperatureAvgF,TemperatureLowF,DewpointHighF,DewpointAvgF,DewpointLowF,HumidityHigh,HumidityAvg,HumidityLow,PressureMaxIn,PressureMinIn,WindSpeedMaxMPH,WindSpeedAvgMPH,GustSpeedMaxMPH,PrecipitationSumIn
2013-9-1,104,94,84,71,68,66,59,44,32,30.09,29.95,8,1,0,0.00
2013-9-2,106,94,83,69,65,63,56,40,25,30.08,29.95,7,1,0,0.00
2013-9-3,104,94,84,68,66,61,57,41,25,30.10,29.98,8,1,0,0.00
2013-9-4,103,91,84,73,67,62,57,45,29,30.15,30.03,15,2,0,0.00
2013-9-5,107,93,82,68,65,61,56,40,26,30.09,30.00,10,1,0,0.00
2013-9-6,108,93,84,67,63,59,51,38,24,30.07,29.96,12,1,0,0.00
2013-9-7,96,87,81,72,69,63,70,55,42,30.15,30.05,14,1,0,0.00
2013-9-8,102,90,77,71,67,57,79,51,28,30.07,29.91,5,0,0,0.00
2013-9-9,100,89,77,69,62,53,65,42,27,30.00,29.85,11,1,0,0.00
2013-9-10,98,86,78,71,65,52,78,52,29,30.08,29.97,14,1,0,0.00
2013-9-11,98,86,74,61,56,50,54,36,26,30.15,30.03,8,1,0,0.00
2013-9-12,102,88,75,60,54,49,53,34,18,30.11,29.96,6,0,0,0.00
2013-9-13,105,91,77,59,52,46,42,27,16,30.00,29.81,5,0,0,0.00
2013-9-14,108,93,78,62,54,49,43,29,16,29.89,29.78,12,1,0,0.00
2013-9-15,108,94,81,60,55,51,40,28,16,29.94,29.85,10,1,0,0.00
2013-9-16,109,95,83,60,53,49,37,25,16,29.98,29.85,11,1,0,0.00
2013-9-17,108,93,79,55,48,44,39,22,12,29.92,29.80,6,1,0,0.00
2013-9-18,103,87,75,55,45,34,44,24,11,29.93,29.82,8,1,0,0.00
2013-9-19,102,86,70,60,51,42,54,34,13,29.98,29.88,8,1,0,0.00
2013-9-20,100,86,71,60,56,51,64,40,19,30.00,29.90,7,1,0,0.00
2013-9-21,97,82,68,59,53,46,65,40,18,30.04,29.87,14,2,0,0.00
2013-9-22,91,78,69,52,48,41,52,37,19,30.04,29.91,14,3,0,0.00
2013-9-23,98,81,64,52,47,41,61,34,14,30.13,30.03,4,0,0,0.00
2013-9-24,96,84,71,52,45,38,38,27,19,30.14,29.98,11,1,0,0.00
2013-9-25,96,81,68,54,42,33,48,26,13,29.99,29.79,12,2,0,0.00
2013-9-26,83,73,65,48,44,39,51,37,22,30.10,29.86,11,4,0,0.00
2013-9-27,88,74,59,44,37,31,53,29,13,30.25,30.10,12,1,0,0.00
2013-9-28,91,77,62,44,35,30,37,24,12,30.31,30.20,5,0,0,0.00
2013-9-29,94,79,65,46,38,31,38,24,14,30.30,30.15,7,1,0,0.00
2013-9-30,94,79,66,46,41,36,41,27,16,30.19,30.02,8,1,0,0.00